Wind_Speed
48 49 51 51 50 48 48 48 46 45 43 42 42 41 40 41 41 41 40 39 40 41 42 42 43 45 45 46 46 45 45 44 45 47 47 47 47 47
46 47 49 50 50 47 47 47 45 44 43 43 42 42 41 41 40 41 40 40 40 41 42 42 42 44 44 44 44 43 43 44 46 47 47 47 48 47
45 45 46 47 48 47 45 44 43 43 43 42 42 42 40 39 39 39 40 40 40 40 42 42 42 43 42 43 43 42 43 44 45 46 46 47 47 46
44 45 45 45 46 45 44 42 42 43 42 41 41 40 40 39 39 39 39 39 40 41 42 41 42 42 43 42 41 41 42 43 44 45 46 47 47 46
44 44 44 44 44 44 44 42 41 42 42 41 41 40 39 39 39 38 38 39 40 41 42 41 41 42 42 40 40 40 41 42 44 46 46 46 46 45
43 43 43 44 44 44 45 43 42 42 41 41 41 40 39 39 38 38 38 39 39 40 41 40 40 40 39 39 39 40 41 42 44 45 45 45 45 44
42 42 43 43 44 44 44 43 42 42 41 41 40 39 39 39 39 38 38 39 39 39 39 39 38 37 38 38 38 39 40 41 43 45 45 44 43 42
40 41 42 43 42 42 42 42 41 41 40 40 38 38 37 37 38 37 38 38 37 37 36 36 35 36 36 37 37 38 39 40 42 43 44 43 42 41
38 39 41 42 41 41 40 41 40 40 40 39 39 39 38 37 37 37 36 36 35 35 35 34 35 35 35 35 36 37 38 40 41 41 42 41 40 40
36 37 39 39 39 40 40 39 38 38 39 39 39 39 38 37 36 36 36 35 35 34 34 34 34 34 34 34 35 36 38 39 40 41 41 39 39 38
33 35 37 37 36 38 38 38 38 37 37 38 37 37 37 36 35 36 35 34 33 32 32 33 33 33 33 33 34 36 37 38 39 39 39 37 37 36
33 33 34 35 36 36 37 37 37 37 37 37 37 36 35 35 34 34 33 33 32 31 31 32 32 32 33 33 34 35 36 37 37 37 36 35 35 33
33 32 32 33 35 36 36 35 35 36 36 36 35 34 34 34 34 33 32 32 32 32 31 32 32 32 32 32 33 33 34 35 35 34 34 33 33 32
31 32 33 34 34 34 35 35 34 34 35 35 34 33 33 33 32 31 30 30 30 30 31 30 30 30 31 31 31 31 32 33 33 32 32 31 31 31
30 31 33 33 32 32 32 33 33 33 33 33 33 32 32 31 31 30 29 29 29 29 29 28 29 29 29 30 30 30 31 31 31 30 30 29 29 29
27 29 29 30 30 30 31 32 32 32 32 32 31 31 30 30 29 29 28 27 27 27 27 27 28 28 28 28 28 28 29 29 29 28 28 28 28 28
26 26 27 28 29 28 29 31 32 32 31 31 30 30 30 29 28 28 27 27 26 25 25 25 26 26 25 26 26 27 26 26 27 27 27 27 28 28
25 26 26 27 28 28 28 29 29 30 30 29 29 29 29 28 27 26 27 26 25 24 24 23 24 24 24 24 25 25 24 25 25 26 26 26 26 27
24 25 26 27 27 27 27 27 27 28 28 28 28 28 27 26 26 26 25 25 24 23 22 22 22 22 22 23 23 22 22 23 23 24 24 25 25 25
23 24 26 26 26 26 26 25 25 25 26 27 27 27 26 25 24 24 23 22 21 21 21 20 19 20 20 21 20 19 20 21 22 23 23 23 24 24
22 23 24 25 24 24 23 23 23 23 24 25 25 24 24 23 22 21 20 19 18 18 18 18 18 18 19 19 18 18 19 20 21 21 21 22 23 23
21 21 22 23 23 22 22 23 23 23 23 22 22 23 22 21 20 19 18 17 16 16 17 17 16 17 17 17 17 18 18 19 20 20 20 20 21 21
21 22 22 22 22 21 21 22 22 21 21 21 21 22 21 20 19 18 18 17 16 16 16 15 15 15 15 16 16 16 17 18 18 19 19 19 20 19
Wind_Direction
247 245 242 241 241 244 246 248 250 253 255 258 260 263 265 270 272 275 280 284 288 292 294 296 299 301 303 305 307 309 310 312 315 316 316 316 317 317
246 245 242 240 240 242 245 246 249 252 254 257 260 262 265 270 273 276 279 283 287 292 294 296 299 301 303 304 306 307 309 312 315 316 316 316 317 317
247 246 243 242 240 242 244 246 248 251 254 256 260 262 264 268 272 276 280 283 287 291 294 296 298 300 302 304 305 307 309 312 315 316 316 317 317 318
246 245 242 241 241 243 244 246 249 251 253 256 259 261 264 267 271 275 280 282 286 290 293 296 298 299 301 303 305 307 310 312 315 316 316 317 319 319
245 244 242 242 240 243 244 247 249 251 252 254 256 259 263 266 271 275 279 282 286 289 292 295 298 300 301 303 305 307 310 313 316 317 318 318 319 319
244 244 243 242 240 243 246 248 249 250 251 253 255 258 262 265 270 275 278 282 287 290 293 296 298 299 302 304 306 308 310 313 317 319 319 319 319 320
244 243 241 240 240 244 247 249 249 251 251 253 256 259 262 264 270 275 278 282 287 290 293 295 297 299 302 305 307 309 311 314 317 319 320 320 321 321
243 241 239 239 241 244 246 248 249 250 251 253 256 258 262 265 270 274 278 282 287 290 293 295 297 300 302 305 308 310 311 314 317 320 321 321 321 322
239 239 239 239 241 243 244 246 247 249 251 254 255 256 261 265 269 274 278 281 286 288 291 294 297 300 303 306 309 310 311 314 317 319 321 321 321 323
240 240 239 239 239 241 243 245 247 249 252 254 256 258 261 263 268 272 275 279 283 286 290 293 296 300 303 305 308 309 311 314 317 319 320 321 322 323
241 239 239 239 239 240 242 244 246 247 251 254 256 259 260 262 267 269 273 278 282 286 289 292 294 298 302 306 308 310 312 315 317 319 320 321 323 324
240 239 239 238 239 240 243 244 245 247 250 255 256 258 260 262 265 268 272 277 281 285 287 289 292 296 301 305 308 311 313 316 318 320 322 323 325 326
241 237 236 237 239 241 242 243 245 248 250 254 256 258 261 263 265 266 270 274 279 283 285 288 291 295 301 305 308 312 313 316 318 321 323 324 326 327
241 238 238 240 241 240 242 244 246 249 252 255 257 259 260 261 262 265 269 274 277 281 285 288 291 296 301 305 309 311 313 316 318 321 323 325 327 328
239 238 239 239 241 241 243 244 246 250 252 254 256 257 258 258 259 264 268 273 277 282 285 287 291 296 300 304 307 309 312 316 319 322 324 326 328 330
239 238 239 241 242 242 243 244 248 252 254 255 255 254 255 255 256 261 268 273 278 282 285 287 292 296 300 303 306 310 312 316 321 324 325 327 330 331
242 241 242 243 242 242 244 246 250 253 254 251 251 252 253 253 255 261 267 272 277 281 284 287 291 296 299 303 307 311 313 318 323 325 326 327 330 333
243 241 242 243 243 244 247 248 251 252 249 248 249 251 251 252 257 260 266 270 275 280 283 287 292 295 299 303 308 311 313 318 323 325 326 328 331 333
245 244 243 243 244 246 248 249 249 247 246 247 249 251 250 253 256 259 262 268 273 277 279 284 290 295 301 305 308 310 313 318 322 325 326 329 332 334
247 247 245 243 244 245 247 247 246 244 245 246 247 249 250 252 256 259 261 266 270 274 277 282 289 295 301 304 306 309 314 318 322 325 328 331 334 336
248 246 244 242 243 243 243 243 244 244 243 242 242 245 248 250 253 256 259 263 269 274 277 283 287 293 298 300 304 309 313 317 322 326 328 332 335 338
245 244 241 240 242 242 241 240 240 239 237 236 238 241 244 247 249 251 256 261 266 273 279 284 288 295 298 299 303 307 313 318 322 327 329 332 336 339
243 242 240 240 239 238 237 235 234 233 232 233 237 241 243 243 247 250 253 259 265 271 276 281 286 294 300 304 306 310 315 319 323 327 329 332 336 340
Height
5636 5640 5645 5651 5657 5662 5667 5671 5676 5679 5683 5685 5686 5687 5688 5688 5687 5685 5684 5682 5680 5677 5673 5669 5664 5660 5654 5649 5643 5637 5630 5624 5617 5609 5602 5594 5586 5578
5625 5629 5634 5640 5645 5650 5655 5660 5664 5668 5672 5675 5677 5678 5678 5678 5677 5676 5675 5674 5671 5668 5664 5660 5655 5651 5646 5640 5635 5628 5622 5615 5608 5601 5593 5585 5577 5569
5615 5618 5623 5629 5634 5640 5645 5650 5653 5657 5660 5664 5666 5667 5668 5668 5668 5667 5666 5664 5662 5659 5655 5651 5647 5642 5637 5632 5626 5619 5613 5607 5600 5592 5584 5576 5568 5560
5604 5608 5613 5618 5624 5629 5634 5639 5643 5647 5650 5653 5656 5657 5658 5659 5659 5658 5657 5655 5653 5650 5646 5642 5638 5633 5628 5623 5617 5611 5605 5598 5592 5584 5576 5569 5560 5551
5593 5598 5603 5608 5613 5619 5624 5628 5632 5636 5639 5643 5645 5647 5648 5649 5649 5648 5647 5645 5643 5640 5637 5633 5629 5624 5619 5614 5608 5603 5597 5591 5584 5576 5568 5559 5551 5542
5583 5587 5592 5598 5604 5608 5613 5618 5622 5625 5629 5632 5635 5637 5638 5639 5639 5638 5637 5635 5633 5631 5628 5624 5620 5615 5611 5606 5601 5595 5589 5583 5575 5568 5560 5551 5543 5535
5572 5577 5582 5587 5593 5598 5603 5607 5611 5615 5618 5621 5625 5627 5628 5629 5629 5629 5627 5626 5624 5622 5618 5615 5611 5607 5602 5598 5592 5587 5581 5575 5568 5560 5552 5544 5535 5527
5561 5566 5571 5577 5583 5588 5593 5597 5601 5604 5608 5611 5614 5617 5619 5620 5620 5619 5618 5617 5615 5613 5609 5606 5603 5599 5595 5590 5585 5579 5574 5567 5560 5552 5544 5536 5528 5520
5551 5556 5561 5567 5573 5578 5582 5586 5590 5593 5597 5601 5604 5607 5609 5610 5610 5610 5609 5608 5606 5603 5600 5598 5595 5591 5587 5582 5577 5572 5566 5560 5552 5545 5537 5529 5522 5514
5542 5547 5552 5558 5563 5567 5572 5576 5579 5583 5587 5591 5594 5597 5598 5599 5600 5600 5599 5598 5597 5594 5592 5590 5587 5583 5579 5574 5569 5564 5558 5552 5545 5538 5530 5523 5516 5508
5534 5539 5544 5549 5554 5558 5562 5567 5571 5575 5578 5581 5584 5586 5587 5588 5589 5589 5589 5589 5588 5586 5584 5582 5578 5575 5571 5567 5562 5557 5551 5545 5538 5531 5524 5517 5510 5503
5526 5530 5535 5540 5545 5549 5553 5557 5562 5566 5569 5572 5574 5576 5577 5578 5579 5580 5580 5580 5579 5578 5576 5573 5570 5566 5563 5559 5554 5549 5543 5537 5531 5524 5518 5511 5505 5498
5518 5522 5527 5532 5536 5540 5544 5549 5553 5557 5560 5562 5564 5566 5568 5570 5571 5571 5572 5572 5571 5570 5568 5565 5562 5559 5556 5552 5547 5542 5537 5531 5524 5518 5512 5506 5500 5494
5510 5515 5519 5524 5528 5532 5536 5540 5543 5547 5550 5552 5555 5557 5559 5561 5562 5563 5563 5563 5562 5561 5559 5557 5554 5552 5549 5545 5540 5535 5530 5524 5519 5513 5507 5501 5495 5489
5503 5507 5511 5516 5519 5523 5527 5530 5534 5537 5540 5543 5546 5548 5550 5552 5554 5555 5555 5555 5554 5553 5551 5549 5547 5544 5541 5538 5534 5529 5524 5519 5513 5508 5502 5496 5491 5485
5496 5500 5504 5507 5511 5515 5518 5522 5525 5528 5531 5534 5537 5539 5541 5543 5545 5546 5547 5546 5546 5545 5543 5541 5539 5537 5534 5531 5527 5523 5519 5514 5508 5503 5497 5492 5487 5481
5489 5492 5495 5499 5503 5507 5511 5514 5516 5519 5522 5525 5528 5531 5533 5535 5536 5537 5538 5538 5538 5537 5536 5534 5532 5530 5527 5524 5521 5517 5513 5509 5504 5499 5493 5488 5483 5477
5482 5486 5489 5492 5496 5499 5502 5505 5508 5510 5514 5517 5519 5522 5525 5527 5528 5529 5530 5530 5530 5529 5528 5527 5526 5524 5521 5518 5515 5511 5508 5504 5499 5494 5489 5484 5479 5474
5475 5478 5481 5484 5488 5491 5494 5497 5500 5503 5506 5509 5512 5514 5517 5519 5520 5521 5522 5523 5523 5522 5522 5521 5519 5518 5515 5513 5510 5506 5503 5499 5495 5490 5486 5481 5476 5470
5469 5471 5474 5477 5481 5484 5487 5490 5492 5495 5498 5501 5504 5506 5509 5511 5512 5514 5515 5516 5516 5516 5516 5515 5514 5512 5510 5508 5504 5501 5498 5495 5491 5486 5482 5477 5472 5467
5462 5464 5467 5470 5473 5476 5479 5482 5485 5488 5491 5494 5497 5499 5502 5504 5506 5507 5509 5510 5510 5510 5510 5509 5508 5506 5504 5502 5500 5497 5494 5490 5487 5483 5478 5474 5470 5465
5455 5458 5460 5463 5466 5469 5472 5475 5478 5481 5484 5487 5490 5493 5495 5498 5500 5501 5503 5504 5505 5505 5505 5504 5503 5501 5499 5497 5495 5492 5490 5486 5483 5479 5475 5472 5468 5463
5448 5451 5454 5456 5459 5462 5465 5468 5471 5475 5478 5481 5484 5487 5489 5492 5494 5496 5497 5499 5500 5500 5500 5499 5498 5497 5495 5493 5491 5488 5485 5483 5479 5476 5473 5469 5465 5461